Regional Weather Roundup
Issued by NWS Glasgow, MT

Home | Current Version | Previous Version | Text Only | Print | Product List | Glossary On
Versions: 1 2 3 4 5 6 7 8 9 10 11 12 13 14 15 16 17 18 19 20 21 22 23 24 25 26 27 28 29 30 31 32 33 34 35 36 37 38 39 40 41 42 43 44 45 46 47 48 49 50
000
ASUS45 KGGW 140715
RWRGGW
HOURLY REGIONAL WEATHER ROUNDUP FOR NORTHEAST MONTANA
NATIONAL WEATHER SERVICE GLASGOW MONTANA
1200 AM MST SUN FEB 14 2016

NOTE: "FAIR" INDICATES FEW OR NO CLOUDS BELOW 12,000 FEET WITH NO
SIGNIFICANT WEATHER AND/OR OBSTRUCTIONS TO VISISBILITY.

NORTHEAST MONTANA


CITY           SKY/WX    TMP DP  RH WIND       PRES   REMARKS
GLASGOW        CLEAR     30  26  85 NW6       29.84F
PLENTYWOOD       N/A     32  30  92 NW13G22     N/A
WOLF POINT     CLEAR     31  27  85 W5        29.85S
JORDAN           N/A     33  28  81 W8        29.88S
WINNETT          N/A     29  24  82 CALM        N/A
SIDNEY         CLOUDY    36  28  75 NW7       29.83S
GLENDIVE       PTCLDY    30  28  93 SW9       29.89R
MALTA            N/A     32  30  92 SW8         N/A
SCOBEY           N/A     29  19  66 W12       29.79F

FORT PECK REPORTS


CITY           SKY/WX    TMP DP  RH WIND       PRES   REMARKS
FORT PECK        N/A     34  30  86 W7          N/A
THE PINES        N/A     38  30  73 W9          N/A

SOUTHEAST MONTANA


CITY           SKY/WX    TMP DP  RH WIND       PRES   REMARKS
BILLINGS       CLOUDY    37  18  46 S9        29.95F
MILES CITY     MOCLDY    37  28  70 W14       29.90F
BAKER          CLEAR     32  28  85 W15       29.86R
LIVINGSTON     CLOUDY    41  15  35 W24G39    29.95S

CENTRAL MONTANA


CITY           SKY/WX    TMP DP  RH WIND       PRES   REMARKS
HAVRE          CLEAR     30  23  75 W6        29.88F
LEWISTOWN      CLOUDY    31  20  63 SW7       29.91F
GREAT FALLS    CLOUDY    39  21  48 SW16      29.90F
CUT BANK       CLOUDY    36  21  54 W21       29.85F
HELENA         CLOUDY    37  22  54 W7        29.99F
BUTTE          CLOUDY    32  22  66 SW6       30.01F
BOZEMAN        CLOUDY    39  22  50 W13       30.01F

WESTERN MONTANA


CITY           SKY/WX    TMP DP  RH WIND       PRES   REMARKS
MISSOULA       CLOUDY    37  28  70 N3        30.06F
KALISPELL      NOT AVBL

NORTH DAKOTA


CITY           SKY/WX    TMP DP  RH WIND       PRES   REMARKS
WILLISTON      CLOUDY    29  24  82 NW9       29.80F
DICKINSON      CLOUDY    31  27  85 NW20      29.76S
MINOT          LGT SNOW  19  13  77 SE5       29.75F
BISMARCK       CLOUDY    20  15  81 SE8       29.81F HAZE

SOUTHERN SASKATCHEWAN


CITY           SKY/WX    TMP DP  RH WIND       PRES   REMARKS
REGINA         FLURRIES  21  19  93 W7        29.75S
ESTEVAN        NOT AVBL
SWIFT CURRENT  CLEAR     25  23  93 W10       29.76F




USA.gov is the U.S. government's official web portal to all federal, state and local government web resources and services.